Current weather by "City, St" or "zip code"  
 
Advertise Here

Current Conditions: Atkinson Municipal Airport, KS

Mostly Cloudy


28.0 F

Last Updated on Jan 18 2021, 4:55 am CST
Humidity: 87%
Wind Speed: N 0.0 mph
Barometer 29.92 in
Dewpoint: 24.3 F
Visibility: 10.00 mi
Precip: --
Heat Index: NA
Wind Chill: NA
Current conditions at:

Atkinson Municipal Airport, KS (KPTS)

Lat: 37.4494 Lon: 94.7311

Local Radar Image active severe weather and emergency alerts image image weather storm and storm spotter reports image weather observation monitoring service image
Local
Radar
Active
Alerts
Storm Reports Obs
Monitoring

Sign-up For Email & Text Message Weather Alert Notification Services


Advertise Here

Observation History for Atkinson Municipal Airport, KS


Time Wind
(mph)
Vis
(mi)
Weather Precip (in) Temperature (F) Relative
Humidity
Wind
Chill
(F)
Heat
Index
(F)
Pressure
Air Dwpt altimeter
(in)
sea level
(mb)
Rmks
4:55 am CST N 0.0 10.00 Mostly Cloudy -- 28.0 24.3 87% NA NA 29.92 M
3:55 am CST N 0.0 10.00 Fair -- 25.0 22.6 90% NA NA 29.91 M
2:55 am CST N 0.0 10.00 Fair -- 25.0 22.5 89% NA NA 29.92 M
1:55 am CST N 0.0 10.00 Fair -- 24.0 21.9 92% NA NA 29.93 M
12:55 am CST N 0.0 10.00 Fair -- 26.0 23.9 92% NA NA 29.93 M
11:55 pm CST N 0.0 10.00 Fair -- 26.0 23.2 88% NA NA 29.95 M
10:55 pm CST N 0.0 10.00 Fair -- 28.0 23.5 84% NA NA 29.95 M
9:55 pm CST N 0.0 10.00 Fair -- 28.0 23.0 83% NA NA 29.95 M
8:55 pm CST N 0.0 10.00 Fair -- 30.0 25.5 83% NA NA 29.94 M
7:55 pm CST N 0.0 10.00 Fair -- 34.0 25.2 69% NA NA 29.95 M
6:55 pm CST N 0.0 10.00 Fair -- 38.0 25.7 61% NA NA 29.94 M
5:55 pm CST NW 3.5 10.00 Fair -- 41.0 27.9 60% NA NA 29.94 M
4:55 pm CST W 8.1 G 16.1 10.00 Partly Cloudy -- 46.0 28.2 51% 42 NA 29.92 M
3:55 pm CST W 4.6 10.00 Fair -- 47.0 29.7 50% 45 NA 29.91 M
2:55 pm CST W 9.2 G 17.3 10.00 Mostly Cloudy -- 47.0 29.5 50% 43 NA 29.91 M
1:55 pm CST NW 10.4 10.00 Overcast -- 47.0 29.7 52% 42 NA 29.90 M
12:55 pm CST NW 10.4 G 23.0 10.00 Fair -- 46.0 30.4 55% 41 NA 29.92 M
11:55 am CST W 6.9 10.00 Mostly Cloudy -- 43.0 30.4 61% 39 NA 29.94 M
10:55 am CST NW 9.2 G 17.3 10.00 Fair -- 41.0 29.8 65% 35 NA 29.96 M
9:55 am CST W 5.8 10.00 Fair -- 36.0 27.3 71% 31 NA 29.96 M
8:55 am CST W 5.8 10.00 Partly Cloudy -- 32.0 23.9 73% 26 NA 29.95 M
7:55 am CST W 4.6 10.00 Fair -- 29.0 22.1 76% 24 NA 29.95 M
6:55 am CST SW 5.8 10.00 Fair -- 29.0 22.8 77% 23 NA 29.95 M
5:55 am CST N 0.0 10.00 Fair -- 29.0 23.9 81% NA NA 29.94 M

Regional Weather Observation


Allen County Airport, KS (KK88)

Partly Cloudy
25.0 F

Chanute, Chanute Martin Johnson Airport, KS (KCNU)

Fair
32.0 F

Joplin, Joplin Regional Airport, MO (KJLN)

Fair
32.0 F

Parsons, Tri-City Airport, KS (KPPF)

Fair
63.0 F

Coffeyville, Coffeyville Municipal Airport, KS (KCFV)

Fair
29.0 F

INDEPENDENCE, KS (KIDP)

Fair
28.0 F